Location: Waco, TX
(31.5480°N, 97.1670°W)
Time: 03:38:12
(UTC-05:00)

ISS - Pass Details

Date: 19 May 2017
Orbit: 401 x 408 km, 51.6° (Epoch: 23 June)

Event Time Altitude Azimuth Distance (km) Brightness Sun altitude
Rises 23:35:31 0° 233° (SW) 2,325 - -32.1°
Reaches altitude 10° 23:37:37 10° 238° (WSW) 1,466 - -32.3°
Maximum altitude 23:40:51 54° 316° (NW) 500 - -32.7°
Drops below altitude 10° 23:44:05 10° 36° (NE) 1,470 - -33.0°
Sets 23:46:13 0° 41° (NE) 2,332 - -33.2°
